STARLINK-1777 (47122 NORAD) Tracking and Keplerian Element Data
This shows tracking and keplerian element data for the satellite.
Feedback or suggestion? Click here.
Element | Value |
Catalog | 47122 |
Name | STARLINK-1777 |
Epoch Orbit | 1574 |
Epoch Day | 60.91667824 |
Epoch Year | 2021 |
RAAN | 253.7509 |
Inclination | 53.0533 |
Eccentricity | 0.0002425 |
Argument of Perigee | 102.3023 |
Mean Anonmoly | 248.7153 |
Mean Motion | 15.06371192 |
Decay Rate | 0.00025909 |
L1 | 1 47122U 20088A 21060.91667824 .00025909 00000-0 17532-2 0 9991 |
L2 | 2 47122 53.0533 253.7509 0002425 102.3023 248.7153 15.06371192 15744 |
Live tracking and technical data element details for STARLINK-1777 (NORAD 47122). STARLINK-1777 can be tracked NOW for your location showing map with azimuth and elevation plus other details from your city location.
Track the satellite on the map from your city or location and see movement details for azimuth, elevation, latitude, longitude, range, height, and movement on the map or in text.
IsCatalogInMostPopularTable: catalog: 47122, numindb: 24
Update: records affected: 1
GetName: 47122 STARLINK-1777
Hit Count: updated at: Tue, 02 Mar 2021 13:14:15 GMT